SKG793 CYXU-CYOO

Flight info

Callsign SKG793
Flight time N/A
Altitude 13000
Route BOLMO T614 MENTI
Aircraft RJ1H/M-SDFGIRWY/LB1

Departure

Time 2026-04-25 01:15
Airport London International Airport (CYXU)

Arrival

Time N/A
Airport Oshawa Executive Airport (CYOO)
Time Latitude Longitude Altitude Speed Heading
2026-04-25 00:54 43.03568 -81.16428 914 ft 0 kts 333°
2026-04-25 01:05 43.03572 -81.16431 914 ft 3 kts 333°
2026-04-25 01:05 43.03568 -81.16470 917 ft 11 kts 112°
2026-04-25 01:06 43.03618 -81.16331 917 ft 20 kts 80°
2026-04-25 01:06 43.03686 -81.16277 915 ft 0 kts 348°
2026-04-25 01:06 43.03687 -81.16277 915 ft 1 kts 348°
2026-04-25 01:07 43.03691 -81.16278 915 ft 0 kts 348°
2026-04-25 01:07 43.03716 -81.16285 915 ft 2 kts 348°
2026-04-25 01:13 43.03739 -81.16291 921 ft 6 kts 348°
2026-04-25 01:13 43.03790 -81.16305 916 ft 8 kts 353°
2026-04-25 01:13 43.03821 -81.16267 919 ft 5 kts 78°
2026-04-25 01:14 43.03821 -81.16262 916 ft 0 kts 81°
2026-04-25 01:14 43.03834 -81.16167 918 ft 39 kts 79°
2026-04-25 01:14 43.03943 -81.15402 918 ft 120 kts 79°
2026-04-25 01:14 43.04125 -81.14106 1248 ft 156 kts 80°
2026-04-25 01:15 43.04347 -81.12460 1723 ft 198 kts 82°
2026-04-25 01:15 43.04584 -81.10432 2199 ft 230 kts 85°
2026-04-25 01:15 43.04852 -81.08138 2393 ft 260 kts 83°
2026-04-25 01:15 43.05341 -81.05631 2705 ft 281 kts 70°
2026-04-25 01:16 43.06270 -81.03232 3151 ft 295 kts 54°
2026-04-25 01:16 43.07686 -81.00974 2724 ft 335 kts 43°
2026-04-25 01:16 43.09434 -80.98877 2280 ft 324 kts 42°
2026-04-25 01:16 43.11138 -80.97038 2218 ft 305 kts 39°
2026-04-25 01:17 43.12798 -80.95383 2362 ft 283 kts 38°
2026-04-25 01:17 43.13839 -80.94402 2662 ft 268 kts 35°
2026-04-25 01:17 43.15878 -80.92492 2982 ft 267 kts 33°
2026-04-25 01:17 43.17507 -80.91376 3066 ft 263 kts 11°
2026-04-25 01:18 43.19346 -80.91304 2617 ft 277 kts 348°
2026-04-25 01:18 43.21134 -80.92240 2760 ft 279 kts 327°
2026-04-25 01:18 43.22600 -80.93887 3200 ft 266 kts 308°
2026-04-25 01:18 43.23646 -80.95961 3207 ft 273 kts 297°
2026-04-25 01:19 43.24540 -80.98322 3116 ft 281 kts 295°
2026-04-25 01:19 43.25540 -81.00544 3953 ft 261 kts 308°
2026-04-25 01:19 43.26987 -81.01827 5098 ft 251 kts 340°
2026-04-25 01:19 43.28820 -81.01826 5060 ft 286 kts 12°
2026-04-25 01:20 43.30515 -81.00295 5248 ft 304 kts 50°
2026-04-25 01:20 43.31364 -80.97679 5871 ft 300 kts 75°
2026-04-25 01:20 43.31819 -80.95018 7068 ft 261 kts 77°
2026-04-25 01:20 43.32159 -80.92668 8091 ft 250 kts 78°
2026-04-25 01:21 43.32438 -80.90224 8346 ft 265 kts 81°
2026-04-25 01:21 43.32801 -80.87654 8654 ft 285 kts 78°
2026-04-25 01:21 43.33208 -80.85073 9561 ft 277 kts 76°
2026-04-25 01:21 43.33690 -80.82505 10070 ft 279 kts 73°
2026-04-25 01:22 43.34261 -80.79949 10796 ft 279 kts 71°
2026-04-25 01:22 43.34906 -80.77423 11154 ft 284 kts 68°
2026-04-25 01:22 43.35621 -80.74876 11160 ft 302 kts 67°
2026-04-25 01:22 43.36446 -80.72120 11172 ft 318 kts 66°
2026-04-25 01:23 43.37337 -80.69254 11183 ft 333 kts 65°
2026-04-25 01:23 43.38276 -80.66275 11188 ft 346 kts 65°
2026-04-25 01:23 43.39259 -80.63169 11191 ft 359 kts 65°
2026-04-25 01:23 43.40260 -80.60005 11181 ft 370 kts 65°
2026-04-25 01:24 43.41303 -80.56707 11183 ft 380 kts 65°
2026-04-25 01:24 43.42324 -80.53477 11168 ft 356 kts 65°
2026-04-25 01:24 43.43279 -80.50443 11189 ft 338 kts 65°
2026-04-25 01:24 43.44208 -80.47492 11210 ft 334 kts 65°
2026-04-25 01:25 43.45166 -80.44600 11221 ft 330 kts 62°
2026-04-25 01:25 43.46206 -80.41791 11201 ft 327 kts 61°
2026-04-25 01:25 43.47247 -80.39052 11184 ft 326 kts 60°
2026-04-25 01:25 43.48287 -80.36286 11174 ft 324 kts 61°
2026-04-25 01:26 43.49318 -80.33508 11145 ft 324 kts 61°